Flag for Canada Weather past 2 weeks in Inuvik, Northwest Territories, Canada

Now
23 °F

Light snow. Overcast.


Feels Like: 10 °F
Forecast: 20 / 26 °F
Wind: 15 mph from Northeast

Location: Inuvik

Current Time: Oct 20, 2014 at 6:35:05 AM

Latest Report: Oct 20, 2014 at 6:00 AM


Visibility: 15 mi

Pressure: 29.60 "Hg

Humidity: 86%

Dew point: 19 °F

Location of InuvikLocation

Historic Weather in Inuvik — Graph

°F

Inuvik temperature yesterday

Maximum temperature yesterday: 27 °F (at 8:00 PM)
Minimum temperature yesterday: 10 °F (at 3:46 AM)
Average temperature yesterday: 18 °F

Past Weeks' High & Low Weather Summary

 TemperatureHumidityPressure
High36 °F (Oct 6, 2:00 AM)100% (Oct 5, 8:00 AM)30.12 "Hg (Oct 5, 8:00 AM)
Low10 °F (Oct 10, 1:00 AM)63% (Oct 9, 6:00 PM)29.37 "Hg (Oct 11, 2:00 AM)
Average25 °F90%29.84 "Hg
* Reported Oct 5 5:00 AM — Oct 20 5:00 AM, Inuvik, Weather by CustomWeather, © 2014

Note: Actual official high and low records may vary slightly from our data, if they occured in-between our weather recording intervals... More about our weather records

Advertising

Inuvik weather history for previous 24 hours

 ConditionsComfort  
Time TempWeatherWind HumidityBarometerVisibility
5:00 AM
Oct 20
23 °FLight snow. Overcast.18 mph86%29.62 "Hg15 mi
4:00 AM23 °FLight snow. Overcast.17 mph86%29.65 "Hg15 mi
3:00 AM25 °FLight snow. Overcast.14 mph80%29.67 "Hg10 mi
2:00 AM25 °FLight snow. Overcast.21 mph86%29.67 "Hg10 mi
1:00 AM27 °FLight snow. Overcast.18 mph80%29.67 "Hg10 mi
12:00 AM27 °FLight snow. Overcast.14 mph86%29.70 "Hg10 mi
11:00 PM
Oct 19
27 °FLight snow. Overcast.15 mph86%29.70 "Hg6 mi
9:00 PM27 °FLight snow. Overcast.14 mph93%29.73 "Hg3 mi
8:00 PM27 °FOvercast.12 mph93%29.75 "Hg15 mi
7:00 PM25 °FOvercast.9 mph100%29.77 "Hg15 mi
6:00 PM25 °FLow clouds.8 mph100%29.76 "Hg15 mi
5:00 PM25 °FPartly sunny.9 mph93%29.75 "Hg15 mi
4:00 PM23 °FLow clouds.13 mph93%29.77 "Hg15 mi
3:00 PM23 °FBroken clouds.9 mph93%29.78 "Hg15 mi
2:00 PM21 °FBroken clouds.13 mph93%29.79 "Hg15 mi
1:00 PM21 °FPartly cloudy.10 mph93%29.79 "Hg15 mi
12:00 PM19 °FPartly cloudy.14 mph100%29.80 "Hg15 mi
11:00 AM19 °FPassing clouds.13 mph93%29.81 "Hg15 mi
10:00 AM18 °FPassing clouds.10 mph93%29.81 "Hg15 mi
9:00 AM14 °FPassing clouds.5 mph85%29.82 "Hg15 mi
8:00 AM14 °FPassing clouds.7 mph92%29.81 "Hg15 mi
7:00 AM12 °FPassing clouds.5 mph92%29.81 "Hg15 mi
6:00 AM10 °FPassing clouds.3 mph92%29.83 "Hg15 mi
Weather by CustomWeather, © 2014

See weather overviewHow to use our weather pages